EW0420 Weather Reports


Display with metric or nautical units.
time (UTC)temp
F
wind
direction
speed
MPH
gust
MPH
rain 1hr
in
rain 24hr
in
rain mn
in
humidity
%
barometer
mb
20260502180202 53 127 5.0 7.0 0.00 0.05 0.05 80 1014.9
20260502170126 53 119 2.0 5.0 0.00 0.05 0.05 84 1015.4
20260502164113 52 134 2.0 2.0 0.00 0.05 0.05 84 1015.4
20260502163609 52 125 2.0 3.0 0.00 0.05 0.05 84 1015.6
20260502163105 52 139 2.0 3.0 0.00 0.05 0.05 84 1015.4
20260502162602 52 128 3.0 5.0 0.00 0.05 0.05 84 1015.6
20260502162059 52 156 3.0 3.0 0.00 0.05 0.05 84 1015.6
20260502161556 52 149 1.0 1.0 0.00 0.05 0.05 87 1015.7
20260502161054 51 149 1.0 2.0 0.00 0.05 0.05 87 1015.9
20260502160551 51 151 2.0 2.0 0.00 0.05 0.05 87 1015.8
20260502152005 51 135 2.0 3.0 0.00 0.05 0.05 89 1016.2
20260502151501 51 134 1.0 2.0 0.00 0.05 0.05 90 1016.3
20260502150959 51 141 2.0 5.0 0.00 0.05 0.05 89 1016.2
20260502150456 51 130 2.0 5.0 0.00 0.05 0.05 92 1015.8
20260502130341 48 77 0.0 1.0 0.00 0.05 0.05 99 1016.2
20260502123323 47 147 0.0 0.0 0.05 0.02 0.02 98 1017.1
20260502122821 47 147 0.0 1.0 0.00 0.01 0.01 98 1017.0
20260502122316 47 147 1.0 1.0 0.00 0.01 0.01 97 1017.1
20260502121815 47 146 1.0 2.0 0.07 0.01 0.01 97 1017.2
20260502121312 47 148 0.0 1.0 0.07 0.01 0.01 97 1016.9
20260502120809 47 148 1.0 1.0 0.00 0.00 0.00 97 1016.9
20260502120305 47 149 0.0 1.0 0.00 0.00 0.00 97 1016.7
20260502115803 47 157 2.0 3.0 0.00 0.00 0.00 97 1017.0
20260502115300 47 145 1.0 2.0 0.00 0.00 0.00 97 1016.9
20260502114756 47 153 1.0 2.0 0.00 0.00 0.00 97 1016.8
20260502114253 46 153 1.0 2.0 0.00 0.00 0.00 97 1016.4
20260502113750 46 144 1.0 2.0 0.00 0.00 0.00 97 1016.6
20260502113248 46 144 0.0 1.0 0.00 0.00 0.00 97 1016.5
20260502112746 46 144 1.0 2.0 0.00 0.00 0.00 97 1016.4
20260502112243 46 144 0.0 1.0 0.00 0.00 0.00 97 1016.3
20260502111740 46 144 1.0 1.0 0.00 0.00 0.00 97 1016.0
20260502111237 46 144 1.0 1.0 0.00 0.00 0.00 96 1015.8
20260502110735 46 144 1.0 1.0 0.00 0.00 0.00 95 1016.2
20260502110232 46 144 0.0 2.0 0.00 0.00 0.00 94 1016.5
20260502105730 46 151 2.0 2.0 0.00 0.00 0.00 94 1016.4
20260502105226 46 145 2.0 3.0 0.00 0.00 0.00 93 1016.4
20260502104724 46 151 2.0 2.0 0.00 0.00 0.00 93 1016.1
20260502104222 46 164 3.0 3.0 0.00 0.00 0.00 92 1016.1
20260502103719 46 144 1.0 2.0 0.00 0.00 0.00 92 1016.1
20260502103217 46 144 0.0 1.0 0.00 0.00 0.00 92 1016.0
20260502102713 46 144 2.0 2.0 0.00 0.00 0.00 92 1015.9
20260502102210 46 146 1.0 1.0 0.00 0.00 0.00 93 1015.9
20260502101708 46 146 1.0 2.0 0.00 0.00 0.00 92 1015.8
20260502101206 46 146 1.0 2.0 0.00 0.00 0.00 92 1015.8
20260502100704 46 146 0.0 0.0 0.00 0.00 0.00 93 1015.7
20260502100202 45 146 0.0 1.0 0.00 0.00 0.00 93 1015.6
20260502091136 46 157 1.0 2.0 0.00 0.00 0.00 92 1015.5
20260502090633 46 149 1.0 2.0 0.00 0.00 0.00 91 1015.6
20260502090130 46 143 0.0 1.0 0.00 0.00 0.00 92 1015.8
20260502071528 48 119 0.0 1.0 0.00 0.00 0.00 83 1015.4
20260502071026 48 119 1.0 1.0 0.00 0.00 0.00 82 1015.4
20260502070523 48 119 1.0 3.0 0.00 0.00 0.00 82 1015.4
20260502070022 48 132 1.0 2.0 0.00 0.00 0.00 83 1015.5
20260502065520 48 117 1.0 1.0 0.00 0.00 0.00 83 1015.3
20260502065017 48 117 0.0 1.0 0.00 0.00 0.00 82 1015.5
20260502064515 48 117 0.0 0.0 0.00 0.00 0.00 81 1015.5
20260502064012 48 117 0.0 1.0 0.00 0.00 0.00 81 1015.4
20260502063510 48 120 0.0 0.0 0.00 0.00 0.00 81 1015.6
20260502063008 48 125 0.0 1.0 0.00 0.00 0.00 82 1015.7
20260502062504 48 133 1.0 2.0 0.00 0.00 0.00 80 1015.9
20260502062003 48 133 3.0 3.0 0.00 0.00 0.00 80 1015.8
20260502061500 48 122 1.0 2.0 0.00 0.00 0.00 81 1015.7
20260502060956 48 116 0.0 1.0 0.00 0.00 0.00 81 1015.8
20260502060451 48 123 1.0 1.0 0.00 0.00 0.00 80 1015.7
20260502055949 49 126 0.0 1.0 0.00 0.00 0.00 79 1015.8
20260502055446 49 119 1.0 2.0 0.00 0.00 0.00 78 1015.6
20260502054940 49 129 1.0 3.0 0.00 0.00 0.00 78 1015.7
20260502054438 49 133 2.0 2.0 0.00 0.00 0.00 77 1015.7
20260502053935 49 121 1.0 2.0 0.00 0.00 0.00 77 1015.6
20260502053432 49 133 1.0 2.0 0.00 0.00 0.00 77 1015.7
20260502052930 49 135 2.0 2.0 0.00 0.00 0.00 77 1015.7
20260502052428 49 132 1.0 2.0 0.00 0.00 0.00 76 1015.6
20260502051926 49 133 1.0 2.0 0.00 0.00 0.00 76 1015.5
20260502051424 49 133 1.0 2.0 0.00 0.00 0.00 75 1015.4
20260502050920 49 133 1.0 2.0 0.00 0.00 0.00 75 1015.6
20260502050417 49 132 1.0 1.0 0.00 0.00 0.00 75 1015.6
20260502045914 49 132 1.0 1.0 0.00 0.00 0.00 76 1015.4
20260502045411 49 132 2.0 2.0 0.00 0.00 0.00 75 1015.4
20260502044908 49 132 1.0 2.0 0.00 0.00 0.00 74 1015.4
20260502044403 49 132 1.0 2.0 0.00 0.00 0.00 74 1015.3
20260502043900 49 132 1.0 1.0 0.00 0.00 0.00 74 1015.4
20260502043358 49 132 1.0 1.0 0.00 0.00 0.00 74 1015.5
20260502042857 49 132 1.0 1.0 0.00 0.00 0.00 76 1015.6
20260502042355 49 133 1.0 1.0 0.00 0.00 0.00 76 1015.3
20260502041852 48 133 0.0 1.0 0.00 0.00 0.00 79 1015.2
20260502041349 48 132 1.0 1.0 0.00 0.00 0.00 80 1015.6
20260502040847 48 132 1.0 1.0 0.00 0.00 0.00 79 1015.9
20260502040344 48 133 0.0 0.0 0.00 0.00 0.00 77 1015.6
20260502035840 48 132 0.0 0.0 0.00 0.00 0.00 75 1015.6
20260502035336 49 132 0.0 1.0 0.00 0.00 0.00 74 1015.9
20260502034834 49 132 0.0 0.0 0.00 0.00 0.00 73 1015.7
20260502034332 50 132 0.0 1.0 0.00 0.00 0.00 69 1015.8
20260502033830 50 133 0.0 1.0 0.00 0.00 0.00 68 1015.7
20260502033328 50 132 1.0 1.0 0.00 0.00 0.00 70 1015.8
20260502032824 50 132 1.0 1.0 0.00 0.00 0.00 71 1015.7
20260502032320 50 132 1.0 1.0 0.00 0.00 0.00 69 1015.6
20260502031818 50 132 1.0 1.0 0.00 0.00 0.00 69 1015.7
20260502031316 50 132 1.0 1.0 0.00 0.00 0.00 70 1015.7
20260502030814 50 132 1.0 1.0 0.00 0.00 0.00 70 1015.9
20260502030312 50 132 1.0 2.0 0.00 0.00 0.00 69 1015.6
20260502025809 50 132 1.0 2.0 0.00 0.00 0.00 70 1016.0
20260502025307 49 132 1.0 2.0 0.00 0.00 0.00 70 1015.8
20260502024805 48 132 1.0 1.0 0.00 0.00 0.00 77 1015.9
20260502024302 48 132 0.0 0.0 0.00 0.00 0.00 76 1015.6
20260502023800 48 132 0.0 0.0 0.00 0.00 0.00 77 1015.9
20260502023258 48 132 0.0 0.0 0.00 0.00 0.00 75 1015.7
20260502022755 48 132 0.0 0.0 0.00 0.00 0.00 74 1015.7
20260502022251 48 132 0.0 0.0 0.00 0.00 0.00 75 1015.9
20260502021748 47 132 0.0 0.0 0.00 0.00 0.00 77 1015.8
20260502021245 47 132 0.0 1.0 0.00 0.00 0.00 77 1015.6
20260502020743 46 132 0.0 1.0 0.00 0.00 0.00 77 1015.8
20260502020240 46 132 0.0 1.0 0.00 0.00 0.00 78 1015.9
20260502015738 46 132 0.0 3.0 0.00 0.00 0.00 78 1015.8
20260502015233 46 162 0.0 1.0 0.00 0.00 0.00 74 1015.4
20260502014731 46 162 0.0 0.0 0.00 0.00 0.00 74 1015.7
20260502014228 46 162 1.0 1.0 0.00 0.00 0.00 74 1015.8
20260502013724 46 162 0.0 1.0 0.00 0.00 0.00 74 1015.8
20260502013220 46 162 0.0 1.0 0.00 0.00 0.00 74 1015.7
20260502012717 46 162 0.0 0.0 0.00 0.00 0.00 75 1015.9
20260502012215 46 162 0.0 0.0 0.00 0.00 0.00 74 1015.7
20260502011712 47 162 0.0 0.0 0.00 0.00 0.00 73 1015.5
20260502011207 47 162 0.0 0.0 0.00 0.00 0.00 73 1015.4
20260502010706 47 162 0.0 0.0 0.00 0.00 0.00 73 1015.5
20260502010201 48 162 0.0 0.0 0.00 0.00 0.00 71 1015.4
20260502005658 48 162 0.0 0.0 0.00 0.00 0.00 71 1015.4
20260502005156 48 162 0.0 0.0 0.00 0.00 0.00 65 1015.1
20260502004652 48 162 0.0 0.0 0.00 0.00 0.00 64 1015.2
20260502004149 49 162 0.0 0.0 0.00 0.00 0.00 64 1015.0
20260502003647 50 162 0.0 0.0 0.00 0.00 0.00 57 1015.3
20260502003144 51 162 0.0 0.0 0.00 0.00 0.00 55 1015.2
20260502002640 51 162 0.0 0.0 0.00 0.00 0.00 56 1015.0
20260502002137 51 162 0.0 0.0 0.00 0.00 0.00 55 1014.8
20260502001635 51 162 0.0 0.0 0.00 0.00 0.00 55 1014.8
20260502001132 52 162 0.0 0.0 0.00 0.00 0.00 52 1014.9
20260502000630 53 162 0.0 0.0 0.00 0.00 0.00 52 1014.7
20260502000127 54 162 0.0 0.0 0.00 0.00 0.00 51 1014.4
20260501235623 54 162 0.0 0.0 0.00 0.00 0.00 46 1014.7
20260501235119 55 162 0.0 0.0 0.00 0.00 0.00 45 1014.3
20260501234615 55 162 0.0 0.0 0.00 0.00 0.00 43 1014.4
20260501234112 56 162 0.0 0.0 0.00 0.00 0.00 42 1014.3
20260501233611 57 162 0.0 0.0 0.00 0.00 0.00 41 1014.1
20260501233108 57 162 0.0 0.0 0.00 0.00 0.00 40 1014.4
20260501232603 58 162 0.0 1.0 0.00 0.00 0.00 40 1014.3
20260501232101 58 162 0.0 0.0 0.00 0.00 0.00 39 1014.0
20260501231558 59 163 0.0 1.0 0.00 0.00 0.00 39 1014.1
20260501231056 59 171 0.0 2.0 0.00 0.00 0.00 38 1013.7
20260501230555 59 175 3.0 3.0 0.00 0.00 0.00 38 1013.9
20260501230052 59 160 1.0 3.0 0.00 0.00 0.00 38 1014.0
20260501225550 59 153 1.0 2.0 0.00 0.00 0.00 37 1013.6
20260501225046 59 157 1.0 2.0 0.00 0.00 0.00 38 1013.7
20260501224544 59 163 3.0 5.0 0.00 0.00 0.00 39 1013.6
20260501224040 60 217 4.0 5.0 0.00 0.00 0.00 37 1013.5
20260501223537 60 143 2.0 5.0 0.00 0.00 0.00 36 1013.4
20260501223033 60 109 1.0 5.0 0.00 0.00 0.00 35 1013.4
20260501222530 60 138 3.0 6.0 0.00 0.00 0.00 36 1013.6
20260501222027 60 147 1.0 5.0 0.00 0.00 0.00 37 1013.8
20260501221523 60 120 4.0 6.0 0.00 0.00 0.00 38 1013.6
20260501221021 60 162 2.0 5.0 0.00 0.00 0.00 37 1013.8
20260501220518 61 159 3.0 5.0 0.00 0.00 0.00 37 1013.5
20260501220015 61 173 3.0 5.0 0.00 0.00 0.00 39 1013.5
20260501215511 60 161 3.0 7.0 0.00 0.00 0.00 36 1013.3
20260501215007 61 263 3.0 3.0 0.00 0.00 0.00 36 1013.6
20260501214502 60 180 3.0 5.0 0.00 0.00 0.00 40 1013.6
20260501213958 60 270 3.0 5.0 0.00 0.00 0.00 36 1013.6
20260501213455 61 168 4.0 6.0 0.00 0.00 0.00 35 1013.4
20260501212950 61 183 1.0 5.0 0.00 0.00 0.00 39 1013.5
20260501212447 61 230 3.0 5.0 0.00 0.00 0.00 36 1013.5
20260501211944 60 180 3.0 6.0 0.00 0.00 0.00 36 1013.5
20260501211442 61 166 3.0 6.0 0.00 0.00 0.00 36 1013.3
20260501210939 61 155 3.0 5.0 0.00 0.00 0.00 36 1013.6
20260501210435 61 181 4.0 7.0 0.00 0.00 0.00 35 1013.3
20260501205932 61 175 6.0 7.0 0.00 0.00 0.00 35 1013.5
20260501205429 62 159 4.0 7.0 0.00 0.00 0.00 36 1013.5
20260501204926 62 180 3.0 6.0 0.00 0.00 0.00 36 1013.1
20260501204422 62 153 3.0 5.0 0.00 0.00 0.00 35 1013.0
20260501203918 62 180 2.0 6.0 0.00 0.00 0.00 36 1013.3
20260501203415 62 160 1.0 5.0 0.00 0.00 0.00 34 1013.1
20260501202913 61 254 6.0 8.0 0.00 0.00 0.00 33 1013.3
20260501202410 62 153 2.0 8.0 0.00 0.00 0.00 37 1013.1
20260501201906 61 179 4.0 6.0 0.00 0.00 0.00 35 1012.9
20260501201403 63 164 6.0 7.0 0.00 0.00 0.00 36 1013.0
20260501200859 62 81 0.0 9.0 0.00 0.00 0.00 36 1013.0
20260501200357 62 149 0.0 5.0 0.00 0.00 0.00 35 1013.0
20260501195855 63 174 2.0 5.0 0.00 0.00 0.00 36 1013.1
20260501195350 62 159 1.0 5.0 0.00 0.00 0.00 35 1013.0
20260501194846 62 154 7.0 8.0 0.00 0.00 0.00 36 1013.0
20260501194342 62 151 4.0 7.0 0.00 0.00 0.00 37 1013.3
20260501193838 62 303 3.0 8.0 0.00 0.00 0.00 35 1013.4
20260501193337 63 170 6.0 9.0 0.00 0.00 0.00 36 1013.3
20260501192835 61 167 4.0 7.0 0.00 0.00 0.00 38 1013.1
20260501192331 61 260 3.0 5.0 0.00 0.00 0.00 37 1013.4
20260501191828 60 139 1.0 6.0 0.00 0.00 0.00 38 1013.6
20260501191326 60 187 2.0 3.0 0.00 0.00 0.00 39 1013.5
20260501190822 62 175 4.0 10.0 0.00 0.00 0.00 38 1013.4
20260501190319 62 212 7.0 9.0 0.00 0.00 0.00 37 1013.7
20260501185814 62 293 6.0 8.0 0.00 0.00 0.00 38 1013.6
20260501185310 61 155 2.0 6.0 0.00 0.00 0.00 40 1013.8
20260501184806 59 225 3.0 6.0 0.00 0.00 0.00 39 1013.7
20260501184302 60 239 9.0 14.0 0.00 0.00 0.00 38 1013.9
20260501183758 59 124 0.0 3.0 0.00 0.00 0.00 41 1013.9
20260501183255 59 193 1.0 9.0 0.00 0.00 0.00 41 1013.8
20260501182751 59 325 4.0 5.0 0.00 0.00 0.00 41 1013.8
20260501182248 60 175 2.0 6.0 0.00 0.00 0.00 41 1013.9
20260501181745 60 158 1.0 3.0 0.00 0.00 0.00 41 1013.8
20260501181242 61 231 5.0 11.0 0.00 0.00 0.00 39 1014.1
20260501180740 62 242 9.0 11.0 0.00 0.00 0.00 40 1014.2